Temp
9 9 9 9 9 9 9 8 8 8 8 8 8 8 8 8 8 8 8 8 9 8 9 9 10 10 11 11 10 10 11 12 14 15 17 17 17 18 18 18 17 17 17 18 17 17 16
9 9 9 9 9 9 9 8 8 8 8 8 8 8 8 8 8 8 8 8 8 8 9 9 9 10 12 11 8 10 11 13 14 15 16 17 17 17 17 17 16 16 17 17 17 17 17
9 9 9 9 9 9 8 8 8 8 8 8 7 7 7 8 8 8 8 8 8 8 8 8 9 10 9 8 7 9 10 12 14 15 15 15 16 17 17 15 15 15 15 16 16 17 16
8 8 8 8 9 9 8 8 8 8 7 7 7 7 8 8 9 10 9 8 8 8 8 10 10 10 8 8 8 8 9 12 14 14 14 15 16 15 15 14 15 15 15 16 15 15 14
8 8 8 8 8 8 9 8 8 8 7 7 7 7 8 8 8 9 9 8 8 8 9 9 10 10 9 9 8 9 10 12 14 14 15 15 16 14 15 15 14 15 15 17 15 16 16
8 8 8 8 8 8 8 8 8 7 7 7 7 7 8 9 8 8 9 9 9 9 10 10 10 11 9 8 8 10 12 14 14 14 14 15 15 14 15 14 14 16 15 16 16 15 15
8 8 8 8 8 8 8 8 8 8 7 7 8 8 9 10 10 10 10 10 9 9 9 8 9 9 9 9 11 12 13 14 15 15 14 15 14 12 15 14 15 15 16 16 17 16 14
8 7 7 8 8 8 7 8 8 8 7 7 9 9 10 10 10 10 10 9 6 9 9 10 10 9 9 10 12 13 14 14 14 13 14 13 13 14 14 14 15 15 15 16 15 15 15
8 8 7 7 7 7 7 7 7 7 7 7 8 9 10 10 11 10 8 7 7 8 11 12 12 11 11 12 12 12 14 15 14 14 15 13 13 14 14 14 15 15 15 15 14 14 15
8 8 7 7 7 7 7 7 7 7 7 7 9 10 10 11 11 11 10 8 8 9 10 10 11 12 13 13 12 13 13 13 14 13 14 13 13 14 14 14 15 15 15 15 15 11 10
8 8 8 7 7 7 7 7 7 7 7 9 10 10 10 10 11 12 9 8 8 9 9 11 11 12 14 13 12 13 13 14 13 13 13 13 13 13 14 15 15 14 15 14 14 13 11
9 8 8 7 7 6 7 7 7 7 7 10 11 11 11 10 11 8 8 8 9 10 9 11 12 12 13 14 13 13 13 14 13 14 14 14 14 14 14 15 15 15 14 14 15 13 10
9 8 8 7 7 6 6 7 7 7 8 11 10 10 11 10 10 9 9 10 10 10 11 12 12 14 14 14 14 14 14 13 12 11 11 13 14 14 14 14 15 14 14 10 14 11 10
8 8 8 7 7 6 7 7 7 7 9 11 11 10 10 9 10 10 10 11 10 12 13 13 13 14 13 14 14 14 14 13 13 13 12 12 12 14 14 15 14 13 13 13 13 13 13
8 8 8 7 7 6 7 7 7 8 9 11 10 10 11 11 10 9 11 10 10 13 14 13 13 14 14 14 14 15 14 13 13 13 13 13 14 15 15 16 15 12 12 13 11 11 12
8 8 8 7 8 7 6 7 8 8 10 11 11 13 11 12 11 9 11 11 12 13 14 14 14 15 14 14 14 14 15 15 14 13 14 13 13 15 13 14 14 14 12 12 11 12 13
8 8 8 8 9 8 8 8 9 10 11 11 12 13 13 13 11 13 11 12 13 13 13 14 15 15 16 15 15 15 15 14 15 13 13 13 13 14 14 13 14 12 12 11 11 12 13
8 8 8 8 8 9 8 9 9 11 11 12 12 9 14 13 12 14 12 13 10 14 13 14 13 15 15 15 16 16 15 15 15 15 14 14 13 11 15 16 17 16 14 12 12 13 12
8 8 8 8 8 9 9 9 10 10 10 10 13 12 14 13 13 12 13 13 13 14 14 14 15 15 15 15 15 16 16 15 15 15 14 14 13 10 15 15 15 14 13 12 12 13 11
9 8 8 8 8 9 9 9 9 11 10 10 12 9 13 14 14 15 14 14 14 13 14 14 14 15 15 16 15 15 16 15 14 14 12 13 13 13 11 15 15 14 14 12 12 11 13
9 9 8 8 8 8 9 9 10 10 11 11 11 10 10 12 13 14 14 14 14 14 13 14 15 15 15 15 16 16 16 16 14 13 13 13 12 12 13 14 14 14 14 14 11 12 13
10 9 9 8 8 8 9 9 10 10 11 11 11 11 10 11 12 14 12 14 14 15 14 15 14 15 15 14 15 14 14 15 15 13 14 13 11 12 11 14 14 13 14 15 15 14 12
10 9 9 9 8 8 9 9 9 10 11 10 9 9 10 10 12 12 14 15 15 13 14 14 14 13 14 15 13 13 13 13 13 13 14 14 12 10 10 12 12 11 14 14 15 15 15
9 9 9 9 8 8 8 8 9 9 9 8 7 8 10 12 12 13 13 13 13 13 13 14 14 13 12 13 12 12 12 12 12 12 13 12 12 10 9 10 9 14 15 15 14 15 15
10 9 9 9 8 8 8 8 8 8 9 9 7 7 9 10 12 13 12 12 13 13 11 12 13 14 12 12 12 13 13 13 13 12 12 12 11 9 9 9 13 14 14 15 15 15 14
9 10 9 9 9 8 8 8 8 8 8 8 8 7 8 9 11 12 12 12 11 12 13 12 13 12 12 12 13 13 13 15 14 11 12 12 11 10 11 10 12 15 14 15 15 11 14
9 9 9 9 9 9 8 7 8 8 7 7 7 8 7 8 10 11 10 11 12 11 11 13 12 10 12 11 11 12 11 14 12 14 9 9 9 9 9 10 12 14 12 14 13 12 14
9 9 9 9 9 9 8 7 7 7 7 7 7 7 7 7 8 9 10 10 10 9 11 11 11 10 10 10 12 12 12 13 12 13 13 11 10 9 10 10 10 12 12 12 13 13 14
9 9 8 9 9 8 8 8 7 7 7 6 6 6 7 5 7 8 9 9 9 9 9 10 10 11 11 9 10 11 11 11 12 11 13 11 13 13 12 11 13 12 14 13 13 12 13
Height
825 821 815 810 806 800 794 789 784 779 774 769 766 762 757 753 751 750 750 749 748 748 746 748 749 751 751 757 768 770 770 771 774 775 775 775 778 777 781 781 789 791 789 790 793 797 799
826 822 817 813 807 802 797 792 787 782 777 772 769 765 760 757 753 752 752 753 753 752 751 751 753 754 757 766 774 772 772 774 778 777 778 778 777 778 781 786 790 790 791 794 794 796 798
828 824 819 814 810 805 800 795 791 786 781 777 773 769 763 758 754 752 753 754 756 757 757 758 760 758 760 781 778 775 776 777 780 781 782 782 781 782 785 794 795 797 798 795 795 795 798
830 825 821 816 813 808 803 798 794 790 786 781 776 772 768 765 761 757 757 757 759 761 762 763 765 766 780 785 783 781 783 783 783 785 786 786 786 787 790 796 797 796 797 799 799 800 802
832 827 823 818 816 811 806 801 795 792 789 786 781 777 774 772 770 766 763 763 766 766 767 769 772 775 785 789 789 789 788 789 788 789 788 788 787 792 794 795 799 796 801 793 803 797 798
833 829 825 821 818 814 809 804 799 796 793 789 785 782 778 777 777 775 771 771 773 772 773 776 778 780 794 798 795 793 791 790 789 790 790 789 790 794 794 798 805 794 799 795 796 800 801
835 831 826 823 820 816 811 807 803 798 796 793 789 785 784 781 779 777 775 774 780 785 785 790 793 794 799 800 798 796 792 790 789 789 791 791 796 802 795 798 796 796 796 794 792 795 802
837 832 828 824 821 818 813 809 805 801 799 796 792 788 786 784 782 778 778 780 788 792 793 796 797 800 801 800 796 795 793 791 790 794 792 796 799 799 799 802 801 799 799 797 798 797 798
838 834 830 826 823 819 815 811 806 803 799 797 794 791 788 787 786 785 786 790 790 790 789 797 798 799 801 800 799 798 794 790 791 792 791 796 804 802 801 804 800 798 799 800 805 800 791
840 835 831 827 824 820 816 812 808 805 800 796 794 792 791 790 791 789 790 793 792 792 798 812 803 805 801 799 802 802 801 800 796 800 797 802 806 804 805 803 803 801 800 802 801 815 827
841 837 833 828 824 821 817 813 809 806 801 796 792 791 791 792 792 791 795 793 792 793 809 814 811 807 803 802 806 805 804 798 801 801 803 808 807 807 803 800 802 806 802 804 804 807 815
841 838 834 830 824 820 817 814 810 806 801 797 795 792 792 794 795 796 794 792 792 796 824 816 811 806 803 801 804 804 804 803 804 800 800 802 803 804 801 801 802 802 804 801 800 807 826
842 838 835 831 826 820 816 813 810 807 802 798 796 794 794 794 795 792 791 791 798 813 819 815 812 802 800 801 802 802 802 804 807 813 814 806 802 802 804 804 804 804 805 826 804 813 819
844 840 835 831 826 822 817 813 809 806 802 799 798 797 797 797 795 794 792 791 809 814 811 811 808 802 806 804 804 803 803 808 808 806 810 810 810 802 802 800 801 805 806 809 806 806 800
844 840 836 831 826 823 818 813 809 805 801 801 800 799 799 797 795 794 795 808 821 810 809 807 806 802 803 804 806 801 804 807 810 809 810 807 801 797 799 796 800 808 810 807 819 810 807
845 842 837 832 827 823 819 815 810 805 802 801 802 800 800 797 794 795 799 810 811 810 808 806 805 802 803 804 803 802 799 803 808 810 809 809 805 794 802 801 802 803 809 812 814 813 799
845 842 839 834 829 824 820 816 812 807 803 801 801 799 798 796 795 794 809 809 808 809 809 807 802 800 799 802 802 800 802 805 804 811 810 812 808 801 801 802 798 808 807 813 814 808 801
846 843 840 836 832 827 822 817 813 807 803 802 801 814 799 796 801 799 812 808 815 809 810 807 809 803 801 800 799 798 800 801 801 803 805 805 806 816 794 782 780 787 796 805 808 801 799
847 843 841 838 833 829 824 820 815 810 806 805 804 805 800 798 806 810 811 813 813 810 808 806 804 804 802 802 804 799 799 802 802 803 805 803 806 818 794 791 789 794 795 801 803 803 806
847 844 841 838 835 830 826 822 817 812 809 808 806 820 804 801 803 803 805 809 810 813 811 810 807 805 801 799 800 803 799 800 802 803 807 808 805 803 815 790 789 791 787 798 802 805 789
847 844 841 839 835 831 827 824 819 815 811 810 809 816 818 812 810 808 809 809 806 807 811 807 804 805 806 803 796 797 796 795 798 802 804 806 808 804 797 788 786 786 783 784 792 787 784
846 844 841 838 836 833 829 824 821 817 813 813 814 814 815 814 813 809 814 810 807 805 807 803 807 804 804 807 804 804 802 797 795 800 799 799 811 799 801 780 779 782 773 770 768 773 777
846 844 841 838 836 834 831 827 822 820 817 817 819 819 818 817 812 814 807 804 806 811 805 804 805 806 803 800 803 802 802 801 800 799 797 797 803 810 805 783 783 784 759 756 758 758 759
845 843 841 838 836 834 832 830 827 823 821 823 824 822 819 813 813 808 809 810 808 809 811 805 808 809 808 804 801 797 798 798 799 797 796 800 799 807 813 800 810 756 748 748 752 747 746
842 841 840 839 836 834 832 831 831 828 823 822 825 826 823 818 811 809 809 810 807 808 812 808 806 804 805 805 802 794 790 790 786 790 794 797 803 812 815 807 772 750 750 749 750 746 744
839 839 838 837 836 835 833 830 829 831 828 823 824 826 826 825 811 810 812 809 811 805 802 802 802 804 807 807 804 801 799 782 787 797 794 795 800 809 794 801 778 745 747 746 747 762 742
835 836 835 835 834 833 833 832 829 828 830 828 823 823 826 825 813 812 813 811 810 810 808 801 803 805 802 804 808 804 805 786 793 783 806 807 807 809 808 799 767 741 745 747 757 753 740
831 832 832 831 831 831 830 831 830 827 828 831 826 820 824 825 816 812 812 812 811 813 810 808 808 808 808 806 799 795 793 788 792 780 777 788 794 797 790 789 778 742 749 751 741 738 738
827 827 829 829 827 828 827 827 828 827 826 829 830 824 818 821 815 811 810 809 810 810 810 805 807 805 803 807 800 795 795 790 785 792 770 783 768 766 765 758 740 739 734 735 735 739 739
Wind_Speed
24 25 28 29 31 33 32 30 27 26 27 27 25 24 24 22 20 16 14 13 12 11 10 10 4 20 7 8 6 7 3 8 7 5 7 5 5 5 6 6 5 3 4 2 2 2 3
24 25 27 29 29 31 31 29 27 27 27 25 25 25 23 22 19 14 9 8 8 10 10 11 11 9 6 8 9 9 5 12 8 4 4 1 3 5 7 7 2 5 5 1 1 2 4
24 25 25 27 28 28 29 28 28 28 26 24 24 26 26 22 19 12 9 8 8 9 9 7 18 19 23 9 13 6 16 14 7 9 6 8 5 3 5 4 2 3 2 6 6 1 1
24 24 24 25 27 27 28 27 27 26 26 25 25 27 25 28 28 28 20 14 13 11 11 13 15 22 7 12 18 20 14 14 11 13 11 8 11 6 4 5 3 3 1 2 3 4 3
24 24 24 24 25 26 26 27 25 25 25 25 24 23 19 20 25 33 29 24 24 22 22 22 14 7 6 9 10 12 5 10 11 11 10 7 4 3 3 2 3 2 1 2 5 3 2
23 24 24 23 23 24 24 26 26 25 25 24 22 18 14 14 16 18 18 28 28 22 19 18 6 5 5 5 5 7 6 6 5 7 5 2 2 3 1 1 2 3 2 1 3 5 5
25 23 24 24 23 22 22 23 24 25 24 22 20 16 11 11 14 12 8 3 4 7 22 11 11 15 8 5 6 3 6 7 3 4 3 1 2 3 2 8 6 6 4 2 4 8 3
24 24 23 23 23 22 22 23 22 22 22 21 17 10 7 10 21 13 17 5 4 4 12 14 14 8 6 2 7 8 2 1 3 5 2 2 7 8 6 3 2 1 3 3 5 3 5
24 25 24 24 23 22 22 22 22 21 20 19 18 11 6 8 9 17 18 8 5 4 4 12 9 7 3 2 8 11 11 5 4 4 3 8 6 5 2 1 1 5 2 5 3 8 7
25 25 25 24 24 22 21 21 21 20 20 18 15 13 6 4 4 2 5 4 4 4 4 9 10 7 6 3 5 7 9 4 3 5 7 7 2 3 1 1 1 3 6 3 4 6 2
25 25 25 25 24 24 22 21 20 19 19 14 11 10 7 7 5 3 4 6 6 2 5 7 6 4 5 6 1 5 5 3 8 5 3 3 5 3 3 3 1 5 5 5 5 6 4
22 27 25 26 24 24 24 22 20 18 20 13 8 8 5 5 4 5 10 12 4 3 6 5 4 4 4 7 4 1 1 0 1 1 1 5 3 3 4 3 2 7 5 6 3 2 3
20 24 26 26 24 24 25 23 21 19 19 9 9 8 6 5 2 9 12 6 4 6 2 4 4 5 9 7 6 5 5 6 3 3 3 3 3 3 1 2 1 2 2 1 2 1 4
20 21 26 25 25 24 25 23 21 20 17 5 9 10 9 8 5 6 4 2 9 0 7 2 2 2 5 6 4 4 3 3 4 3 3 2 1 6 8 3 1 1 1 1 3 3 3
19 20 23 25 27 25 25 23 21 21 15 5 6 5 2 9 6 4 2 7 3 1 1 3 4 2 4 4 1 1 4 3 2 1 3 1 3 4 6 2 1 2 1 2 1 4 2
18 19 22 25 27 25 24 23 24 21 14 6 1 2 3 11 7 3 4 5 4 0 2 4 4 3 4 4 2 1 3 2 3 1 1 2 1 3 4 1 2 2 2 1 2 3 4
17 19 20 24 26 26 25 25 26 22 11 5 1 2 5 12 3 1 3 4 4 2 2 3 3 3 4 3 3 3 4 3 3 4 1 1 1 2 4 6 7 3 3 1 2 2 2
18 19 20 23 25 25 25 25 27 22 11 5 3 2 10 8 3 3 3 4 3 1 1 1 3 3 4 3 3 0 3 4 3 4 2 2 3 3 5 5 3 4 3 4 2 0 3
20 18 19 21 24 25 24 25 27 21 15 4 2 1 5 6 3 3 2 3 4 2 1 2 1 2 3 4 3 2 4 2 3 2 5 2 2 4 1 2 3 2 5 3 2 2 5
20 19 19 19 23 24 23 24 27 21 12 3 2 2 3 2 2 2 3 3 1 3 3 3 4 1 3 2 3 4 4 3 3 2 4 3 3 4 4 3 4 5 4 11 6 3 5
17 18 19 19 20 22 22 23 25 23 12 4 3 1 1 2 3 3 3 2 3 2 4 3 3 1 4 3 2 2 3 3 6 6 3 2 4 5 8 14 13 14 13 11 14 13 7
16 15 17 18 18 20 20 21 22 24 9 6 2 1 3 1 2 2 3 3 3 3 3 5 3 4 3 4 2 3 4 2 1 6 3 5 4 6 7 13 8 10 14 16 18 16 20
13 14 14 16 15 17 18 19 19 22 12 5 4 2 3 2 1 2 1 2 1 2 3 3 2 3 6 4 2 7 6 8 7 3 2 3 2 3 5 7 11 7 6 15 11 12 9
12 13 12 13 14 13 15 16 17 17 16 6 4 3 2 1 2 4 1 1 4 5 4 1 2 4 4 6 8 11 12 10 11 10 7 3 2 3 4 7 3 7 3 1 6 11 12
12 13 13 12 13 12 11 13 14 14 13 11 6 4 3 3 1 4 3 5 5 4 4 5 6 2 5 5 4 6 2 3 8 7 9 7 3 3 2 3 10 9 3 2 1 3 5
13 13 13 12 12 11 11 10 10 12 11 7 8 6 2 3 1 2 4 5 3 5 5 6 3 3 2 2 2 3 3 3 1 3 3 4 6 2 2 2 5 2 4 1 2 5 4
15 14 14 12 11 11 10 10 8 8 10 6 2 5 1 2 2 2 3 2 2 4 3 1 4 3 2 2 3 3 4 1 3 3 5 3 4 9 6 5 8 4 8 4 3 5 5
17 15 14 12 10 10 10 10 9 7 8 8 4 1 3 2 5 5 2 3 1 2 3 1 2 2 2 3 3 4 3 2 2 5 4 7 6 5 5 5 9 7 4 6 2 3 3
19 17 15 14 11 11 11 10 10 8 6 6 5 3 2 5 5 5 12 16 9 2 2 2 1 2 2 1 2 2 3 3 4 4 1 4 6 3 7 6 4 7 4 4 4 3 3
Wind_Direction
10 9 8 10 12 10 10 10 17 13 10 10 12 10 11 13 14 18 29 37 37 33 26 36 83 137 108 67 45 358 302 119 125 147 170 162 183 202 166 129 129 257 121 73 9 0 275
12 11 10 11 14 13 14 16 17 15 14 17 17 12 7 6 4 6 20 33 37 33 39 37 80 95 103 70 357 18 120 122 119 121 105 355 27 39 41 114 234 8 69 292 103 317 311
12 14 11 13 15 16 17 19 16 17 19 18 15 10 8 19 13 11 33 48 43 46 45 56 83 78 61 31 30 56 124 77 87 108 79 56 23 13 112 105 47 91 294 198 215 99 21
13 13 13 13 16 16 19 17 18 16 16 16 17 16 22 32 54 67 51 66 59 66 82 97 89 76 62 55 51 76 92 80 82 101 101 102 84 59 46 118 149 198 148 205 89 144 109
12 14 14 15 16 17 18 19 18 15 18 18 19 25 35 39 51 67 57 73 77 81 71 100 77 71 72 36 48 44 105 131 102 101 101 97 65 97 169 203 136 208 162 238 145 161 76
11 12 12 14 17 16 17 19 18 16 19 21 19 26 39 42 51 64 41 64 72 59 66 81 44 89 27 60 355 20 48 136 104 117 112 77 112 143 183 200 82 147 115 186 262 158 190
10 10 10 11 15 16 13 16 16 14 19 21 17 33 38 37 12 4 26 358 41 58 56 65 64 79 68 57 94 47 18 89 99 247 117 217 203 143 119 39 21 7 355 280 299 48 22
10 9 8 7 10 14 15 15 13 12 16 20 19 28 36 24 29 62 79 62 62 127 80 80 92 86 108 356 78 31 282 86 238 86 117 172 75 53 54 51 346 25 285 277 83 165 273
10 6 7 4 5 10 14 15 12 9 9 16 22 8 9 35 63 61 75 77 83 7 65 51 55 40 350 352 45 19 8 349 47 90 3 64 74 120 147 144 265 203 284 11 348 341 275
9 7 4 2 2 6 10 13 10 7 2 5 23 17 9 20 34 16 56 64 8 337 84 8 21 29 350 347 58 19 357 343 29 69 12 71 121 136 115 322 345 292 33 358 321 34 292
4 5 4 2 360 1 4 8 9 4 359 358 16 25 9 36 346 3 354 339 329 236 66 347 354 299 305 63 139 38 339 337 47 64 290 74 146 175 213 47 301 64 351 301 294 298 323
4 5 3 360 -0 358 359 360 2 4 357 13 22 15 25 49 43 360 326 319 268 47 50 17 322 323 76 76 62 219 41 236 65 359 27 99 56 338 357 16 316 340 305 266 226 219 267
6 2 2 359 359 0 360 358 356 360 358 37 39 43 47 19 354 317 335 313 47 52 201 14 359 355 63 50 63 27 47 49 37 72 37 326 175 129 251 182 116 251 307 251 259 275 234
6 0 360 360 360 2 2 358 356 356 1 62 53 59 50 16 345 326 6 28 54 0 67 214 270 317 63 10 62 57 68 67 56 48 96 329 210 184 164 261 167 184 15 82 279 345 321
2 5 0 360 4 3 360 1 359 2 10 33 60 49 19 352 360 9 269 55 90 63 65 346 303 33 118 107 328 317 67 76 62 48 341 251 127 101 189 52 310 191 139 2 3 219 272
359 2 1 3 5 6 5 2 2 3 7 40 37 223 339 349 341 289 61 105 116 307 309 253 21 27 43 43 1 120 127 88 114 118 331 27 262 158 113 80 280 336 123 179 149 276 270
357 1 1 2 6 6 8 6 2 1 10 19 358 323 342 352 356 31 67 75 112 142 266 321 16 55 79 53 42 33 55 121 137 118 48 325 251 147 144 200 169 172 184 168 304 241 283
353 356 2 1 5 5 7 6 4 2 4 31 294 44 334 347 61 30 31 9 307 91 184 287 293 307 354 352 331 75 29 65 70 150 290 85 306 279 236 98 25 140 123 162 245 201 255
351 352 359 0 4 6 6 6 6 4 11 1 355 234 341 352 75 83 147 84 332 295 5 312 310 14 358 341 309 43 22 106 143 251 356 69 249 312 152 88 142 240 176 187 289 357 233
356 348 354 0 1 6 8 8 6 6 6 11 334 21 332 64 316 97 155 105 100 156 303 320 316 308 281 243 136 331 344 129 127 266 41 338 277 245 233 301 336 243 184 190 182 200 255
354 351 350 355 0 4 10 9 9 7 7 9 8 83 4 348 57 42 310 174 167 168 205 221 226 216 353 300 278 194 38 277 175 149 197 233 270 297 275 278 279 278 267 214 206 209 235
346 351 350 352 356 1 7 13 11 9 11 51 5 327 182 73 301 246 158 229 228 148 211 152 230 357 301 286 337 298 357 306 337 166 223 181 263 304 281 268 240 264 253 244 240 226 236
335 342 347 348 353 358 2 11 17 17 27 50 15 336 303 141 171 300 214 101 252 344 186 279 250 281 264 275 219 265 273 282 277 260 269 207 243 351 268 346 309 288 235 237 241 238 240
323 329 333 341 344 352 359 5 14 25 32 48 14 315 314 254 230 213 156 255 234 230 300 343 249 274 19 329 283 253 243 249 252 250 212 273 257 213 273 320 320 238 123 323 221 256 227
311 318 322 323 328 342 352 358 4 16 31 47 26 2 347 283 21 297 219 238 263 230 209 243 267 294 6 308 295 306 192 226 222 204 219 199 244 271 236 260 269 292 186 214 262 308 37
295 309 309 311 318 324 333 347 355 359 10 48 43 21 327 322 219 34 315 242 257 238 229 199 141 57 301 276 301 275 265 332 212 147 344 230 213 275 308 226 259 212 172 161 69 266 123
282 293 297 296 304 314 313 321 339 344 350 358 66 35 329 285 265 158 202 238 235 316 300 105 159 179 189 207 221 240 251 63 259 244 170 186 221 223 234 262 278 181 148 152 154 233 148
274 277 282 279 289 299 301 299 310 329 331 334 291 107 86 293 277 219 237 219 160 243 279 13 1 311 182 219 211 243 212 230 304 253 197 185 183 195 192 227 259 135 86 181 196 157 138
266 266 270 275 276 282 288 282 284 296 312 315 287 296 187 180 256 255 251 249 264 283 316 221 337 316 295 258 303 315 263 218 216 265 359 271 217 237 195 220 188 201 227 175 146 201 287